DW4415 Weather Reports


time (UTC)temp
F
wind
direction
speed
knots
gust
knots
rain 1hr
in
rain 24hr
in
rain mn
in
humidity
%
barometer
mb
20260507023505 63 189 0.9 4.3 0.00 0.00 0.00 76 1015.7
20260507023005 63 203 2.6 5.2 0.00 0.00 0.00 75 1015.6
20260507022504 63 174 0.9 5.2 0.00 0.00 0.00 75 1015.5
20260507022004 63 176 2.6 7.0 0.00 0.00 0.00 74 1015.6
20260507021504 64 212 2.6 6.1 0.00 0.00 0.00 73 1015.6
20260507021005 64 147 0.9 5.2 0.00 0.00 0.00 73 1015.6
20260507020504 64 176 2.6 6.1 0.00 0.00 0.00 73 1015.6
20260507020005 65 208 3.5 6.1 0.00 0.00 0.00 70 1015.5
20260507015505 65 195 2.6 6.1 0.00 0.00 0.00 69 1015.4
20260507015005 65 153 1.7 6.1 0.00 0.00 0.00 68 1015.5
20260507014505 65 210 5.2 7.8 0.00 0.00 0.00 67 1015.4
20260507014005 66 198 1.7 7.0 0.00 0.00 0.00 67 1015.4
20260507013504 66 210 3.5 7.8 0.00 0.00 0.00 66 1015.4
20260507013005 66 240 2.6 10.4 0.00 0.00 0.00 66 1015.4
20260507012005 66 207 4.3 7.8 0.00 0.00 0.00 66 1015.4
20260507011504 66 191 4.3 7.0 0.00 0.00 0.00 65 1015.4
20260507010505 66 213 6.1 10.4 0.00 0.00 0.00 66 1015.5
20260507010005 66 203 2.6 8.7 0.00 0.00 0.00 66 1015.5
20260507005505 66 209 5.2 10.4 0.00 0.00 0.00 64 1015.6
20260507005004 67 255 3.5 10.4 0.00 0.00 0.00 64 1015.6
20260507003505 66 230 4.3 10.4 0.00 0.00 0.00 63 1015.6
20260507003005 67 198 5.2 10.4 0.00 0.00 0.00 62 1015.6
20260507002004 67 228 4.3 13.0 0.00 0.00 0.00 62 1015.6
20260507001505 66 245 7.8 13.0 0.00 0.00 0.00 61 1015.6
20260507001005 67 244 6.1 11.3 0.00 0.00 0.00 61 1015.6
20260506235504 67 207 6.1 13.9 0.00 0.00 0.00 61 1015.6
20260506235005 68 226 5.2 12.2 0.00 0.00 0.00 61 1015.6
20260506234504 67 212 5.2 12.2 0.00 0.00 0.00 62 1015.5
20260506234004 67 205 6.1 11.3 0.00 0.00 0.00 62 1015.5
20260506233505 67 209 7.0 13.0 0.00 0.00 0.00 60 1015.5
20260506233005 68 248 7.0 12.2 0.00 0.00 0.00 60 1015.6
20260506232504 68 235 7.8 12.2 0.00 0.00 0.00 61 1015.7
20260506232005 68 234 7.8 12.2 0.00 0.00 0.00 61 1015.7
20260506231504 68 214 7.8 13.0 0.00 0.00 0.00 60 1015.8
20260506231004 67 217 7.0 11.3 0.00 0.00 0.00 61 1015.7
20260506230505 68 226 7.8 13.9 0.00 0.00 0.00 60 1015.8
20260506225506 68 213 6.1 12.2 0.00 0.00 0.00 61 1015.9
20260506225004 68 229 7.8 12.2 0.00 0.00 0.00 61 1016.0
20260506224504 68 201 7.8 12.2 0.00 0.00 0.00 61 1016.0
20260506224004 69 232 8.7 13.0 0.00 0.00 0.00 61 1016.0
20260506223504 69 215 6.1 11.3 0.00 0.00 0.00 60 1016.1
20260506222504 69 229 7.8 12.2 0.00 0.00 0.00 61 1016.2
20260506222005 69 228 8.7 13.9 0.00 0.00 0.00 62 1016.3
20260506221505 69 223 7.0 11.3 0.00 0.00 0.00 61 1016.4
20260506221005 69 216 7.0 13.0 0.00 0.00 0.00 63 1016.4
20260506220506 69 214 6.1 13.9 0.00 0.00 0.00 62 1016.6
20260506220005 69 223 5.2 11.3 0.00 0.00 0.00 62 1016.7
20260506215504 69 206 7.0 15.6 0.00 0.00 0.00 62 1016.7
20260506215006 69 198 5.2 13.0 0.00 0.00 0.00 61 1016.6
20260506214505 69 213 6.1 11.3 0.00 0.00 0.00 61 1016.7
20260506213004 70 242 6.1 12.2 0.00 0.00 0.00 61 1016.9
20260506212504 70 218 7.8 13.0 0.00 0.00 0.00 61 1016.9
20260506212004 70 244 6.1 12.2 0.00 0.00 0.00 61 1016.9
20260506210504 68 198 7.8 13.0 0.00 0.00 0.00 61 1017.0
20260506205505 69 204 4.3 10.4 0.00 0.00 0.00 60 1017.1
20260506205004 68 221 5.2 13.0 0.00 0.00 0.00 61 1017.1
20260506204504 68 226 5.2 13.0 0.00 0.00 0.00 61 1017.1
20260506204004 68 206 7.0 13.9 0.00 0.00 0.00 62 1017.2
20260506203504 69 231 6.1 10.4 0.00 0.00 0.00 61 1017.2
20260506203004 68 191 6.1 10.4 0.00 0.00 0.00 63 1017.3
20260506202505 68 165 4.3 10.4 0.00 0.00 0.00 65 1017.4
20260506202004 68 241 7.8 13.0 0.00 0.00 0.00 63 1017.4
20260506201504 68 230 5.2 8.7 0.00 0.00 0.00 64 1017.4
20260506201004 68 211 6.1 10.4 0.00 0.00 0.00 65 1017.4
20260506200506 67 247 6.1 12.2 0.00 0.00 0.00 65 1017.4
20260506195504 69 191 4.3 10.4 0.00 0.00 0.00 66 1017.5
20260506194004 68 205 6.1 11.3 0.00 0.00 0.00 65 1017.6
20260506193505 68 226 7.0 12.2 0.00 0.00 0.00 65 1017.6
20260506193004 68 212 6.1 10.4 0.00 0.00 0.00 65 1017.7
20260506192505 67 253 6.1 10.4 0.00 0.00 0.00 66 1017.7
20260506192004 67 218 6.1 10.4 0.00 0.00 0.00 65 1017.7
20260506191504 67 205 4.3 8.7 0.00 0.00 0.00 67 1017.8
20260506191004 68 190 5.2 11.3 0.00 0.00 0.00 65 1017.8
20260506190504 67 203 4.3 10.4 0.00 0.00 0.00 66 1017.9
20260506190005 67 232 6.1 13.0 0.00 0.00 0.00 66 1017.9
20260506185504 67 227 7.8 13.0 0.00 0.00 0.00 66 1017.9
20260506185004 67 227 3.5 11.3 0.00 0.00 0.00 67 1017.8
20260506184504 67 208 4.3 10.4 0.00 0.00 0.00 66 1017.9
20260506184005 67 203 5.2 11.3 0.00 0.00 0.00 66 1018.0
20260506183005 66 233 7.0 12.2 0.00 0.00 0.00 66 1018.0
20260506182504 67 209 5.2 11.3 0.00 0.00 0.00 66 1018.0
20260506181504 67 235 5.2 10.4 0.00 0.00 0.00 65 1018.0
20260506181004 67 205 5.2 10.4 0.00 0.00 0.00 64 1018.1
20260506180504 67 241 6.1 11.3 0.00 0.00 0.00 62 1018.1
20260506180005 66 198 4.3 7.8 0.00 0.00 0.00 62 1018.1
20260506175504 66 218 4.3 8.7 0.00 0.00 0.00 63 1018.0
20260506175005 66 280 2.6 7.8 0.00 0.00 0.00 63 1018.0
20260506173504 66 178 3.5 7.8 0.00 0.00 0.00 62 1018.1
20260506172506 65 208 2.6 7.8 0.00 0.00 0.00 64 1018.1
20260506172004 65 227 5.2 8.7 0.00 0.00 0.00 64 1018.1
20260506171005 65 211 1.7 6.1 0.00 0.00 0.00 67 1018.0
20260506170504 64 209 3.5 7.8 0.00 0.00 0.00 67 1018.0
20260506165505 63 241 2.6 8.7 0.00 0.00 0.00 69 1018.1
20260506164505 63 237 4.3 8.7 0.00 0.00 0.00 68 1018.1
20260506164004 63 228 5.2 7.8 0.00 0.00 0.00 69 1018.1
20260506163505 63 211 4.3 8.7 0.00 0.00 0.00 69 1018.1
20260506163005 62 244 5.2 7.8 0.00 0.00 0.00 70 1018.2
20260506162504 63 213 4.3 8.7 0.00 0.00 0.00 69 1018.2
20260506162005 63 215 4.3 7.0 0.00 0.00 0.00 69 1018.2
20260506161504 63 237 3.5 6.1 0.00 0.00 0.00 70 1018.1
20260506161005 62 224 1.7 6.1 0.00 0.00 0.00 71 1018.1
20260506160505 62 175 1.7 4.3 0.00 0.00 0.00 71 1018.1
20260506160004 62 171 1.7 4.3 0.00 0.00 0.00 71 1018.0
20260506155504 61 183 0.9 2.6 0.00 0.00 0.00 71 1018.1
20260506155005 62 211 0.9 2.6 0.00 0.00 0.00 70 1018.1
20260506154504 61 97 0.9 1.7 0.00 0.00 0.00 73 1018.0
20260506154004 60 123 0.9 2.6 0.00 0.00 0.00 71 1018.0
20260506153504 61 103 1.7 2.6 0.00 0.00 0.00 71 1018.0
20260506153006 61 90 1.7 2.6 0.00 0.00 0.00 72 1018.0
20260506152004 60 106 1.7 2.6 0.00 0.00 0.00 73 1018.1
20260506151504 61 93 1.7 2.6 0.00 0.00 0.00 72 1018.1
20260506151005 60 82 1.7 2.6 0.00 0.00 0.00 73 1018.1
20260506150004 59 103 1.7 2.6 0.00 0.00 0.00 75 1018.1
20260506145505 58 97 0.9 2.6 0.00 0.00 0.00 76 1018.0
20260506145004 58 95 0.9 2.6 0.00 0.00 0.00 78 1018.0
20260506144505 57 77 1.7 5.2 0.00 0.00 0.00 79 1018.0
20260506144004 57 78 0.9 2.6 0.00 0.00 0.00 80 1017.9
20260506143005 56 64 1.7 1.7 0.00 0.00 0.00 83 1017.9
20260506142504 55 76 0.9 2.6 0.00 0.00 0.00 83 1017.8
20260506142004 55 57 0.0 1.7 0.00 0.00 0.00 84 1017.8
20260506141504 55 57 0.0 0.0 0.00 0.00 0.00 83 1017.8
20260506140505 54 57 0.0 0.9 0.00 0.00 0.00 84 1017.7
20260506140005 54 57 0.9 1.7 0.00 0.00 0.00 84 1017.7
20260506135504 53 57 1.7 2.6 0.00 0.00 0.00 85 1017.7
20260506135004 53 57 1.7 2.6 0.00 0.00 0.00 85 1017.7
20260506134505 52 61 1.7 2.6 0.00 0.00 0.00 85 1017.7
20260506134005 52 31 0.0 1.7 0.00 0.00 0.00 85 1017.7
20260506133004 51 31 0.9 1.7 0.00 0.00 0.00 85 1017.7
20260506132505 51 31 0.0 1.7 0.00 0.00 0.00 85 1017.7
20260506132005 51 34 0.9 1.7 0.00 0.00 0.00 85 1017.7
20260506131504 52 69 0.0 0.0 0.00 0.00 0.00 84 1017.5
20260506131004 52 69 0.0 0.9 0.00 0.00 0.00 83 1017.5
20260506130504 52 69 0.0 0.0 0.00 0.00 0.00 83 1017.5
20260506130005 52 69 0.9 1.7 0.00 0.00 0.00 83 1017.4
20260506125504 52 69 0.0 2.6 0.00 0.00 0.00 82 1017.4
20260506125004 53 69 1.7 2.6 0.00 0.00 0.00 82 1017.2
20260506124005 53 69 1.7 2.6 0.00 0.00 0.00 81 1017.2
20260506123005 54 73 0.9 2.6 0.00 0.00 0.00 81 1017.1
20260506122504 54 60 1.7 2.6 0.00 0.00 0.00 81 1017.0
20260506122004 54 62 0.9 2.6 0.00 0.00 0.00 80 1016.9
20260506121504 54 55 2.6 4.3 0.00 0.00 0.00 81 1016.8
20260506121006 54 56 2.6 5.2 0.00 0.00 0.00 81 1016.8
20260506120504 54 60 1.7 4.3 0.00 0.00 0.00 81 1016.8
20260506120006 54 49 2.6 4.3 0.00 0.00 0.00 81 1016.8
20260506115004 54 75 2.6 5.2 0.00 0.00 0.00 82 1016.8
20260506114005 54 69 2.6 5.2 0.00 0.00 0.00 82 1016.8
20260506113506 54 62 1.7 2.6 0.00 0.00 0.00 83 1016.8
20260506113004 54 58 2.6 4.3 0.00 0.00 0.00 83 1016.8
20260506112504 54 64 1.7 2.6 0.00 0.00 0.00 83 1016.8
20260506112004 54 54 1.7 2.6 0.00 0.00 0.00 84 1016.8
20260506111504 54 54 1.7 2.6 0.00 0.00 0.00 84 1016.9
20260506111005 54 38 2.6 4.3 0.00 0.00 0.00 84 1016.8
20260506110504 54 42 1.7 4.3 0.00 0.00 0.00 84 1016.8
20260506105504 54 30 2.6 6.1 0.00 0.00 0.00 84 1016.8
20260506105004 54 44 2.6 2.6 0.00 0.00 0.00 84 1016.8
20260506104504 54 63 1.7 2.6 0.00 0.00 0.00 84 1016.7
20260506104004 54 66 1.7 2.6 0.00 0.00 0.00 84 1016.7
20260506103504 54 59 2.6 6.1 0.00 0.00 0.00 84 1016.6
20260506103004 54 72 2.6 5.2 0.00 0.00 0.00 84 1016.6
20260506102504 54 71 2.6 6.1 0.00 0.00 0.00 84 1016.7
20260506101504 53 61 2.6 4.3 0.00 0.00 0.00 85 1016.8
20260506101004 53 74 4.3 6.1 0.00 0.00 0.00 85 1016.8
20260506100505 53 62 4.3 6.1 0.00 0.00 0.00 85 1016.7
20260506100004 53 70 2.6 6.1 0.00 0.00 0.00 85 1016.7
20260506095505 53 69 1.7 2.6 0.00 0.00 0.00 85 1016.8
20260506095005 53 71 0.9 1.7 0.00 0.00 0.00 85 1016.9
20260506094504 53 71 0.0 0.0 0.00 0.00 0.00 85 1017.0
20260506094004 53 71 0.0 1.7 0.00 0.00 0.00 85 1017.0
20260506092504 54 65 0.0 1.7 0.00 0.00 0.00 85 1017.0
20260506092005 54 65 0.0 1.7 0.00 0.00 0.00 85 1017.0
20260506090505 54 65 1.7 2.6 0.00 0.00 0.00 86 1017.2
20260506090006 54 72 1.7 2.6 0.00 0.00 0.00 85 1017.2
20260506085504 54 69 0.9 1.7 0.00 0.00 0.00 85 1017.1
20260506085004 54 69 0.0 0.9 0.00 0.00 0.00 85 1017.1
20260506084504 54 69 0.0 0.9 0.00 0.00 0.00 85 1017.2
20260506084004 54 69 0.0 1.7 0.00 0.00 0.00 85 1017.2
20260506083004 54 55 1.7 4.3 0.00 0.00 0.00 86 1017.3
20260506082004 54 40 0.9 1.7 0.00 0.00 0.00 86 1017.3
20260506081004 54 59 1.7 2.6 0.00 0.00 0.00 86 1017.3
20260506080504 54 36 1.7 2.6 0.00 0.00 0.00 86 1017.4
20260506073504 54 62 1.7 2.6 0.00 0.00 0.00 86 1017.3
20260506073004 54 63 1.7 2.6 0.00 0.00 0.00 86 1017.2
20260506072504 54 66 1.7 2.6 0.00 0.00 0.00 86 1017.3
20260506072005 54 66 0.0 1.7 0.00 0.00 0.00 86 1017.3
20260506071005 55 69 0.9 2.6 0.00 0.00 0.00 86 1017.1
20260506070504 55 69 1.7 2.6 0.00 0.00 0.00 86 1017.0
20260506062004 55 60 1.7 2.6 0.00 0.00 0.00 86 1016.6
20260506061505 55 66 2.6 5.2 0.00 0.00 0.00 86 1016.5
20260506061004 55 70 0.9 2.6 0.00 0.00 0.00 86 1016.4
20260506060504 55 69 2.6 2.6 0.00 0.00 0.00 86 1016.4
20260506051004 55 115 0.0 0.9 0.00 0.00 0.00 85 1016.1
20260506050505 55 115 0.9 1.7 0.00 0.00 0.00 85 1016.1
20260506045004 56 115 0.0 0.0 0.00 0.00 0.00 82 1015.8
20260506044504 56 115 0.0 0.0 0.00 0.00 0.00 81 1015.8
20260506044004 57 115 0.0 0.0 0.00 0.00 0.00 81 1015.8
20260506043504 57 115 0.0 1.7 0.00 0.00 0.00 81 1015.7
20260506043004 58 143 0.0 1.7 0.00 0.00 0.00 81 1015.7
20260506042504 58 143 0.0 1.7 0.00 0.00 0.00 81 1015.7
20260506042004 58 143 0.0 0.9 0.00 0.00 0.00 81 1015.7
20260506041504 57 143 0.0 0.9 0.00 0.00 0.00 82 1015.5
20260506041004 57 143 0.0 2.6 0.00 0.00 0.00 83 1015.4
20260506040504 57 136 1.7 2.6 0.00 0.00 0.00 82 1015.4
20260506035504 58 133 0.9 4.3 0.00 0.00 0.00 82 1015.4
20260506035004 58 113 0.9 4.3 0.00 0.00 0.00 82 1015.2
20260506034504 58 125 1.7 4.3 0.00 0.00 0.00 82 1015.1
20260506034006 58 162 0.9 2.6 0.00 0.00 0.00 81 1015.0
20260506033005 58 212 0.9 2.6 0.00 0.00 0.00 80 1015.0
20260506032504 58 118 0.0 2.6 0.00 0.00 0.00 80 1014.9
20260506032004 58 138 2.6 5.2 0.00 0.00 0.00 80 1014.8
20260506031505 58 128 0.9 2.6 0.00 0.00 0.00 80 1014.7
20260506031003 58 205 0.9 2.6 0.00 0.00 0.00 79 1014.7
20260506030004 59 167 0.9 2.6 0.00 0.00 0.00 78 1014.5
20260506025504 59 130 0.9 4.3 0.00 0.00 0.00 77 1014.4
20260506025004 59 171 0.0 1.7 0.00 0.00 0.00 77 1014.4
20260506024504 60 178 1.7 4.3 0.00 0.00 0.00 76 1014.2
20260506024004 60 125 0.9 7.8 0.00 0.00 0.00 76 1014.1